Location: �terpigny
(49.8910°N, 2.9249°E)
Time: 23:03:46
(UTC+00:00)

SR - All Passes

Search period start: 28 May 2022 00:00
Search period end: 07 June 2022 00:00
Orbit: 574 x 879 km, 66.7° (Epoch: 28 May)

Date Brightness Start Highest point End Pass type
(mag) Time Alt. Az. Time Alt. Az. Time Alt. Az.
28 May - 03:58:38 10° S 04:03:17 48° ESE 04:08:25 10° NE daylight
28 May - 05:40:51 10° WSW 05:45:32 37° NW 05:50:37 10° NNE daylight
28 May - 07:25:57 10° NW 07:29:13 16° NNW 07:32:39 10° NNE daylight
28 May - 09:10:27 10° NNW 09:13:37 15° N 09:16:52 10° NE daylight
28 May - 10:52:33 10° NNW 10:57:32 30° NE 11:02:41 10° E daylight
28 May - 12:34:24 10° NW 12:40:14 81° WSW 12:46:10 10° SSE daylight
28 May - 14:17:54 10° WNW 14:21:33 17° WSW 14:25:13 10° SW daylight
29 May - 03:09:31 10° SSE 03:13:32 26° ESE 03:17:51 10° NE daylight
29 May - 04:50:16 10° SW 04:55:10 60° NW 05:00:35 10° NNE daylight
29 May - 06:34:35 10° WNW 06:38:26 20° NNW 06:42:29 10° NNE daylight
29 May - 08:19:51 10° NNW 08:22:42 14° N 08:25:38 10° NNE daylight
29 May - 10:02:32 10° NNW 10:06:54 22° NNE 10:11:25 10° ENE daylight
29 May - 11:44:18 10° NNW 11:50:05 64° NE 11:55:58 10° SE daylight
29 May - 13:26:52 10° NW 13:31:53 30° WSW 13:36:55 10° S daylight
30 May - 02:21:31 10° SE 02:23:57 14° ESE 02:26:30 10° ENE visible
30 May - 04:00:06 10° SSW 04:05:01 81° SE 04:10:27 10° NE daylight
30 May - 05:43:24 10° W 05:47:45 27° NNW 05:52:26 10° NNE daylight
30 May - 07:28:49 10° NW 07:31:46 14° N 07:34:49 10° NNE daylight
30 May - 09:12:26 10° NNW 09:16:09 17° NNE 09:19:58 10° ENE daylight
30 May - 10:54:17 10° NNW 10:59:45 41° NE 11:05:20 10° ESE daylight
30 May - 12:36:23 10° NW 12:42:02 52° WSW 12:47:44 10° SSE daylight
31 May - 03:10:26 10° S 03:15:04 45° ESE 03:20:10 10° NE daylight
31 May - 04:52:30 10° WSW 04:57:14 39° NW 05:02:25 10° NNE daylight
31 May - 06:37:30 10° NW 06:40:53 17° NNW 06:44:25 10° NNE daylight
31 May - 08:22:08 10° NNW 08:25:16 15° N 08:28:30 10° NE daylight
31 May - 10:04:18 10° NNW 10:09:15 29° NE 10:14:20 10° E daylight
31 May - 11:46:10 10° NW 11:52:01 86° SW 11:57:57 10° SSE daylight
31 May - 13:29:29 10° WNW 13:33:23 18° WSW 13:37:18 10° SSW daylight
01 Jun - 02:21:25 10° SSE 02:25:20 24° ESE 02:29:33 10° ENE visible
01 Jun - 04:01:57 10° SW 04:06:54 64° NW 04:12:22 10° NNE daylight
01 Jun - 05:46:10 10° WNW 05:50:06 21° NNW 05:54:17 10° NNE daylight
01 Jun - 07:31:28 10° NNW 07:34:21 14° N 07:37:19 10° NNE daylight
01 Jun - 09:14:17 10° NNW 09:18:36 21° NNE 09:23:02 10° ENE daylight
01 Jun - 10:56:04 10° NNW 11:01:49 60° NE 11:07:41 10° SE daylight
01 Jun - 12:38:34 10° NW 12:43:41 32° WSW 12:48:51 10° S daylight
02 Jun - 01:33:38 10° SE 01:35:47 13° ESE 01:37:59 10° ENE visible
02 Jun - 03:11:50 10° SSW 03:16:47 76° ESE 03:22:13 10° NE daylight
02 Jun - 04:55:00 10° W 04:59:27 28° NNW 05:04:14 10° NNE daylight
02 Jun - 06:40:24 10° NW 06:43:26 15° N 06:46:34 10° NNE daylight
02 Jun - 08:24:09 10° NNW 08:27:49 17° NNE 08:31:34 10° ENE daylight
02 Jun - 10:06:04 10° NNW 10:11:28 39° NE 10:17:00 10° ESE daylight
02 Jun - 11:48:08 10° NW 11:53:49 55° WSW 11:59:34 10° SSE daylight
02 Jun - 13:33:52 10° W 13:34:45 10° W 13:35:38 10° WSW daylight
03 Jun - 02:22:14 10° S 02:26:51 41° ESE 02:31:54 10° NE visible
03 Jun - 04:04:08 10° WSW 04:08:57 42° NW 04:14:12 10° NNE daylight
03 Jun - 05:49:03 10° WNW 05:52:33 17° NNW 05:56:12 10° NNE daylight
03 Jun - 07:33:49 10° NNW 07:36:56 15° N 07:40:08 10° NE daylight
03 Jun - 09:16:03 10° NNW 09:20:57 28° NNE 09:25:58 10° E daylight
03 Jun - 10:57:54 10° NW 11:03:47 89° NE 11:09:43 10° SE daylight
03 Jun - 12:41:06 10° WNW 12:45:13 20° WSW 12:49:20 10° SSW daylight
04 Jun - 01:33:19 10° SSE 01:37:08 23° ESE 01:41:13 10° ENE visible
04 Jun - 03:13:39 10° SW 03:18:39 68° NW 03:24:08 10° NNE daylight
04 Jun - 04:57:43 10° WNW 05:01:46 22° NNW 05:06:04 10° NNE daylight
04 Jun - 06:43:05 10° NNW 06:46:00 14° N 06:49:00 10° NNE daylight
04 Jun - 08:26:01 10° NNW 08:30:17 21° NNE 08:34:38 10° ENE daylight
04 Jun - 10:07:49 10° NNW 10:13:34 57° NE 10:19:24 10° SE daylight
04 Jun - 11:50:15 10° NW 11:55:30 35° WSW 12:00:45 10° S daylight
05 Jun - 00:45:51 10° ESE 00:47:36 12° E 00:49:24 10° E visible
05 Jun - 02:23:35 10° SSW 02:28:31 71° ESE 02:33:59 10° NE visible
05 Jun - 04:06:36 10° W 04:11:08 30° NW 04:16:01 10° NNE daylight
05 Jun - 05:51:57 10° NW 05:55:05 15° N 05:58:18 10° NNE daylight
05 Jun - 07:35:52 10° NNW 07:39:28 17° NNE 07:43:10 10° NE daylight
05 Jun - 09:17:49 10° NNW 09:23:11 38° NE 09:28:40 10° ESE daylight
05 Jun - 10:59:51 10° NW 11:05:36 59° WSW 11:11:24 10° SSE daylight
05 Jun - 12:44:49 10° W 12:46:35 11° W 12:48:21 10° WSW daylight
06 Jun - 01:34:03 10° S 01:38:38 39° ESE 01:43:37 10° NE visible
06 Jun - 03:15:47 10° WSW 03:20:39 44° NW 03:25:59 10° NNE daylight
06 Jun - 05:00:36 10° WNW 05:04:12 18° NNW 05:07:58 10° NNE daylight
06 Jun - 06:45:29 10° NNW 06:48:35 15° N 06:51:47 10° NE daylight
06 Jun - 08:27:49 10° NNW 08:32:38 27° NNE 08:37:36 10° E daylight
06 Jun - 10:09:39 10° NW 10:15:32 85° NE 10:21:29 10° SE daylight
06 Jun - 11:52:43 10° WNW 11:57:02 21° WSW 12:01:20 10° SSW daylight
